| time (UTC) | temp F | wind direction | speed MPH | gust MPH | rain 1hr in | rain 24hr in | rain mn in | humidity % | barometer mb |
| 20260505022506 | 68 | 219 | 10.0 | 14.0 | 0.00 | 0.00 | 0.00 | 64 | 1001.5 |
| 20260505022007 | 68 | 225 | 11.0 | 14.0 | 0.00 | 0.00 | 0.00 | 63 | 1001.3 |
| 20260505021526 | 68 | 225 | 11.0 | 14.0 | 0.00 | 0.00 | 0.00 | 63 | 1001.2 |
| 20260505021006 | 68 | 224 | 11.0 | 17.0 | 0.00 | 0.00 | 0.00 | 62 | 1001.1 |
| 20260505020503 | 68 | 210 | 12.0 | 17.0 | 0.00 | 0.00 | 0.00 | 61 | 1001.0 |
| 20260505020006 | 69 | 218 | 14.0 | 17.0 | 0.00 | 0.00 | 0.00 | 61 | 1001.0 |
| 20260505015504 | 69 | 233 | 13.0 | 17.0 | 0.00 | 0.00 | 0.00 | 61 | 1001.0 |
| 20260505015004 | 69 | 217 | 13.0 | 17.0 | 0.00 | 0.00 | 0.00 | 60 | 1001.0 |
| 20260505014512 | 69 | 211 | 14.0 | 20.0 | 0.00 | 0.00 | 0.00 | 60 | 1000.9 |
| 20260505014003 | 69 | 216 | 16.0 | 20.0 | 0.00 | 0.00 | 0.00 | 59 | 1000.8 |
| 20260505013509 | 69 | 219 | 16.0 | 21.0 | 0.00 | 0.00 | 0.00 | 59 | 1000.8 |
| 20260505013015 | 70 | 225 | 14.0 | 22.0 | 0.00 | 0.00 | 0.00 | 58 | 1000.7 |
| 20260505012506 | 70 | 240 | 18.0 | 22.0 | 0.00 | 0.00 | 0.00 | 58 | 1000.7 |
| 20260505012007 | 70 | 221 | 15.0 | 21.0 | 0.00 | 0.00 | 0.00 | 59 | 1000.6 |
| 20260505011006 | 70 | 217 | 14.0 | 19.0 | 0.00 | 0.00 | 0.00 | 59 | 1000.6 |
| 20260505010508 | 70 | 214 | 14.0 | 19.0 | 0.00 | 0.00 | 0.00 | 59 | 1000.5 |
| 20260505010022 | 70 | 222 | 14.0 | 20.0 | 0.00 | 0.00 | 0.00 | 59 | 1000.4 |
| 20260505005503 | 70 | 214 | 15.0 | 22.0 | 0.00 | 0.00 | 0.00 | 58 | 1000.3 |
| 20260505005004 | 70 | 238 | 15.0 | 22.0 | 0.00 | 0.00 | 0.00 | 58 | 1000.1 |
| 20260505004517 | 71 | 223 | 17.0 | 24.0 | 0.00 | 0.00 | 0.00 | 57 | 999.9 |
| 20260505004003 | 71 | 217 | 18.0 | 24.0 | 0.00 | 0.00 | 0.00 | 57 | 999.9 |
| 20260505003503 | 71 | 222 | 17.0 | 24.0 | 0.00 | 0.00 | 0.00 | 58 | 999.9 |
| 20260505003012 | 71 | 229 | 16.0 | 20.0 | 0.00 | 0.00 | 0.00 | 58 | 1000.0 |
| 20260505002509 | 71 | 226 | 15.0 | 20.0 | 0.00 | 0.00 | 0.00 | 58 | 1000.2 |
| 20260505002012 | 72 | 221 | 15.0 | 24.0 | 0.00 | 0.00 | 0.00 | 57 | 1000.2 |
| 20260505001514 | 72 | 236 | 17.0 | 24.0 | 0.00 | 0.00 | 0.00 | 56 | 1000.2 |
| 20260505001010 | 72 | 224 | 17.0 | 29.0 | 0.00 | 0.00 | 0.00 | 55 | 1000.1 |
| 20260505000508 | 73 | 225 | 21.0 | 30.0 | 0.00 | 0.00 | 0.00 | 54 | 1000.0 |
| 20260505000035 | 73 | 233 | 24.0 | 33.0 | 0.00 | 0.00 | 0.00 | 53 | 999.9 |
| 20260504235507 | 74 | 229 | 22.0 | 33.0 | 0.00 | 0.00 | 0.00 | 52 | 999.7 |
| 20260504235009 | 75 | 248 | 19.0 | 30.0 | 0.00 | 0.00 | 0.00 | 52 | 999.7 |
| 20260504234524 | 75 | 229 | 22.0 | 31.0 | 0.00 | 0.00 | 0.00 | 52 | 999.6 |
| 20260504234003 | 75 | 238 | 22.0 | 31.0 | 0.00 | 0.00 | 0.00 | 52 | 999.7 |
| 20260504233504 | 75 | 226 | 25.0 | 32.0 | 0.00 | 0.00 | 0.00 | 51 | 999.7 |
| 20260504233008 | 75 | 224 | 25.0 | 33.0 | 0.00 | 0.00 | 0.00 | 51 | 999.7 |
| 20260504232505 | 75 | 233 | 24.0 | 33.0 | 0.00 | 0.00 | 0.00 | 50 | 999.7 |
| 20260504232004 | 75 | 238 | 25.0 | 32.0 | 0.00 | 0.00 | 0.00 | 50 | 999.8 |
| 20260504231510 | 76 | 224 | 25.0 | 32.0 | 0.00 | 0.00 | 0.00 | 49 | 999.9 |
| 20260504231004 | 76 | 235 | 24.0 | 34.0 | 0.00 | 0.00 | 0.00 | 50 | 1000.0 |
| 20260504230507 | 76 | 242 | 27.0 | 35.0 | 0.00 | 0.00 | 0.00 | 49 | 1000.1 |
| 20260504230016 | 76 | 227 | 25.0 | 35.0 | 0.00 | 0.00 | 0.00 | 49 | 1000.2 |
| 20260504225507 | 76 | 232 | 24.0 | 33.0 | 0.00 | 0.00 | 0.00 | 49 | 1000.3 |
| 20260504225012 | 76 | 238 | 23.0 | 33.0 | 0.00 | 0.00 | 0.00 | 48 | 1000.3 |
| 20260504224521 | 76 | 245 | 25.0 | 32.0 | 0.00 | 0.00 | 0.00 | 47 | 1000.3 |
| 20260504224011 | 76 | 236 | 23.0 | 34.0 | 0.00 | 0.00 | 0.00 | 48 | 1000.4 |
| 20260504223006 | 76 | 225 | 27.0 | 33.0 | 0.00 | 0.00 | 0.00 | 47 | 1000.6 |
| 20260504222504 | 77 | 238 | 25.0 | 37.0 | 0.00 | 0.00 | 0.00 | 48 | 1000.7 |
| 20260504222003 | 77 | 236 | 26.0 | 37.0 | 0.00 | 0.00 | 0.00 | 47 | 1000.8 |
| 20260504221510 | 77 | 237 | 26.0 | 33.0 | 0.00 | 0.00 | 0.00 | 47 | 1000.9 |
| 20260504221008 | 77 | 237 | 25.0 | 33.0 | 0.00 | 0.00 | 0.00 | 47 | 1000.8 |
| 20260504220505 | 77 | 255 | 27.0 | 34.0 | 0.00 | 0.00 | 0.00 | 47 | 1000.9 |
| 20260504220016 | 77 | 243 | 23.0 | 34.0 | 0.00 | 0.00 | 0.00 | 47 | 1000.9 |
| 20260504215507 | 77 | 238 | 26.0 | 35.0 | 0.00 | 0.00 | 0.00 | 46 | 1001.0 |
| 20260504215008 | 77 | 238 | 29.0 | 35.0 | 0.00 | 0.00 | 0.00 | 45 | 1000.9 |
| 20260504214519 | 77 | 229 | 24.0 | 36.0 | 0.00 | 0.00 | 0.00 | 46 | 1001.0 |
| 20260504214009 | 78 | 238 | 26.0 | 36.0 | 0.00 | 0.00 | 0.00 | 45 | 1001.2 |
| 20260504213508 | 78 | 257 | 24.0 | 33.0 | 0.00 | 0.00 | 0.00 | 44 | 1001.2 |
| 20260504213023 | 78 | 237 | 25.0 | 37.0 | 0.00 | 0.00 | 0.00 | 44 | 1001.1 |
| 20260504212507 | 78 | 238 | 23.0 | 37.0 | 0.00 | 0.00 | 0.00 | 45 | 1001.2 |
| 20260504212009 | 77 | 241 | 25.0 | 36.0 | 0.00 | 0.00 | 0.00 | 46 | 1001.2 |
| 20260504211506 | 78 | 236 | 25.0 | 36.0 | 0.00 | 0.00 | 0.00 | 45 | 1001.2 |
| 20260504211004 | 78 | 227 | 26.0 | 34.0 | 0.00 | 0.00 | 0.00 | 44 | 1001.2 |
| 20260504210504 | 77 | 250 | 27.0 | 32.0 | 0.00 | 0.00 | 0.00 | 44 | 1001.2 |
| 20260504210018 | 78 | 231 | 24.0 | 33.0 | 0.00 | 0.00 | 0.00 | 43 | 1001.3 |
| 20260504205505 | 78 | 229 | 24.0 | 34.0 | 0.00 | 0.00 | 0.00 | 44 | 1001.3 |
| 20260504205004 | 77 | 238 | 27.0 | 35.0 | 0.00 | 0.00 | 0.00 | 43 | 1001.2 |
| 20260504204516 | 77 | 247 | 27.0 | 35.0 | 0.00 | 0.00 | 0.00 | 44 | 1001.2 |
| 20260504204006 | 78 | 241 | 27.0 | 35.0 | 0.00 | 0.00 | 0.00 | 43 | 1001.3 |
| 20260504203514 | 77 | 235 | 25.0 | 35.0 | 0.00 | 0.00 | 0.00 | 43 | 1001.2 |
| 20260504203027 | 78 | 232 | 26.0 | 35.0 | 0.00 | 0.00 | 0.00 | 44 | 1001.4 |
| 20260504202513 | 78 | 228 | 23.0 | 37.0 | 0.00 | 0.00 | 0.00 | 43 | 1001.5 |
| 20260504202012 | 78 | 250 | 25.0 | 37.0 | 0.00 | 0.00 | 0.00 | 43 | 1001.3 |
| 20260504201524 | 77 | 245 | 26.0 | 36.0 | 0.00 | 0.00 | 0.00 | 43 | 1001.4 |
| 20260504201006 | 78 | 240 | 26.0 | 31.0 | 0.00 | 0.00 | 0.00 | 43 | 1001.5 |
| 20260504200509 | 79 | 233 | 23.0 | 30.0 | 0.00 | 0.00 | 0.00 | 43 | 1001.6 |
| 20260504200011 | 78 | 243 | 25.0 | 30.0 | 0.00 | 0.00 | 0.00 | 43 | 1001.6 |
| 20260504195503 | 78 | 248 | 24.0 | 34.0 | 0.00 | 0.00 | 0.00 | 43 | 1001.7 |
| 20260504195005 | 78 | 232 | 24.0 | 34.0 | 0.00 | 0.00 | 0.00 | 43 | 1001.8 |
| 20260504194514 | 78 | 245 | 22.0 | 32.0 | 0.00 | 0.00 | 0.00 | 42 | 1001.7 |
| 20260504194005 | 78 | 233 | 22.0 | 32.0 | 0.00 | 0.00 | 0.00 | 45 | 1001.7 |
| 20260504193505 | 77 | 225 | 20.0 | 28.0 | 0.00 | 0.00 | 0.00 | 47 | 1002.1 |
| 20260504193017 | 78 | 236 | 20.0 | 28.0 | 0.00 | 0.00 | 0.00 | 47 | 1001.8 |
| 20260504192505 | 78 | 239 | 23.0 | 28.0 | 0.00 | 0.00 | 0.00 | 47 | 1001.8 |
| 20260504192009 | 78 | 225 | 19.0 | 29.0 | 0.00 | 0.00 | 0.00 | 47 | 1001.8 |
| 20260504191507 | 77 | 228 | 23.0 | 30.0 | 0.00 | 0.00 | 0.00 | 47 | 1002.0 |
| 20260504191004 | 77 | 217 | 22.0 | 30.0 | 0.00 | 0.00 | 0.00 | 46 | 1002.2 |
| 20260504190502 | 77 | 234 | 21.0 | 30.0 | 0.00 | 0.00 | 0.00 | 47 | 1002.3 |
| 20260504190007 | 76 | 235 | 20.0 | 30.0 | 0.00 | 0.00 | 0.00 | 49 | 1002.3 |
| 20260504185504 | 76 | 226 | 18.0 | 30.0 | 0.00 | 0.00 | 0.00 | 49 | 1002.2 |
| 20260504185003 | 75 | 238 | 15.0 | 26.0 | 0.00 | 0.00 | 0.00 | 53 | 1002.3 |
| 20260504184514 | 74 | 238 | 19.0 | 28.0 | 0.00 | 0.00 | 0.00 | 53 | 1002.3 |
| 20260504184004 | 74 | 233 | 20.0 | 29.0 | 0.00 | 0.00 | 0.00 | 56 | 1002.5 |
| 20260504183504 | 73 | 235 | 17.0 | 29.0 | 0.00 | 0.00 | 0.00 | 57 | 1002.7 |
| 20260504183017 | 73 | 227 | 18.0 | 26.0 | 0.00 | 0.00 | 0.00 | 57 | 1002.7 |
| 20260504182505 | 73 | 236 | 18.0 | 26.0 | 0.00 | 0.00 | 0.00 | 55 | 1002.6 |
| 20260504182006 | 72 | 222 | 19.0 | 26.0 | 0.00 | 0.00 | 0.00 | 58 | 1002.7 |
| 20260504181522 | 72 | 230 | 20.0 | 26.0 | 0.00 | 0.00 | 0.00 | 56 | 1002.7 |
| 20260504181007 | 72 | 242 | 21.0 | 30.0 | 0.00 | 0.00 | 0.00 | 54 | 1002.9 |
| 20260504180513 | 73 | 227 | 22.0 | 30.0 | 0.00 | 0.00 | 0.00 | 54 | 1002.7 |
| 20260504180009 | 73 | 244 | 23.0 | 30.0 | 0.00 | 0.00 | 0.00 | 52 | 1002.7 |
| 20260504175503 | 73 | 242 | 22.0 | 28.0 | 0.00 | 0.00 | 0.00 | 51 | 1002.8 |
| 20260504175003 | 73 | 223 | 22.0 | 28.0 | 0.00 | 0.00 | 0.00 | 50 | 1002.8 |
| 20260504174509 | 74 | 236 | 23.0 | 33.0 | 0.00 | 0.00 | 0.00 | 49 | 1002.8 |
| 20260504174003 | 74 | 238 | 20.0 | 33.0 | 0.00 | 0.00 | 0.00 | 49 | 1002.9 |
| 20260504173504 | 74 | 238 | 27.0 | 33.0 | 0.00 | 0.00 | 0.00 | 48 | 1002.9 |
| 20260504173014 | 74 | 250 | 22.0 | 31.0 | 0.00 | 0.00 | 0.00 | 46 | 1003.0 |
| 20260504172504 | 74 | 251 | 23.0 | 33.0 | 0.00 | 0.00 | 0.00 | 46 | 1002.9 |
| 20260504172004 | 74 | 241 | 25.0 | 33.0 | 0.00 | 0.00 | 0.00 | 46 | 1002.8 |
| 20260504171518 | 75 | 244 | 22.0 | 30.0 | 0.00 | 0.00 | 0.00 | 48 | 1002.9 |
| 20260504170508 | 74 | 233 | 23.0 | 30.0 | 0.00 | 0.00 | 0.00 | 47 | 1002.9 |
| 20260504151003 | 71 | 229 | 18.0 | 24.0 | 0.00 | 0.00 | 0.00 | 54 | 1003.3 |
| 20260504150507 | 70 | 245 | 18.0 | 23.0 | 0.00 | 0.00 | 0.00 | 57 | 1003.3 |
| 20260504110508 | 52 | 219 | 7.0 | 10.0 | 0.00 | 0.00 | 0.00 | 86 | 1005.2 |
| 20260504100506 | 51 | 218 | 9.0 | 11.0 | 0.00 | 0.00 | 0.00 | 86 | 1005.4 |
| 20260504082003 | 52 | 223 | 12.0 | 17.0 | 0.00 | 0.00 | 0.00 | 84 | 1006.1 |
| 20260504081517 | 52 | 226 | 11.0 | 16.0 | 0.00 | 0.00 | 0.00 | 84 | 1006.1 |
| 20260504081004 | 52 | 215 | 12.0 | 15.0 | 0.00 | 0.00 | 0.00 | 84 | 1006.2 |
| 20260504080504 | 53 | 217 | 13.0 | 16.0 | 0.00 | 0.00 | 0.00 | 84 | 1006.2 |
| 20260504050507 | 54 | 214 | 9.0 | 13.0 | 0.00 | 0.00 | 0.00 | 76 | 1007.6 |
| 20260504045506 | 54 | 229 | 10.0 | 13.0 | 0.00 | 0.00 | 0.00 | 76 | 1007.6 |
| 20260504045007 | 54 | 235 | 9.0 | 14.0 | 0.00 | 0.00 | 0.00 | 75 | 1007.7 |
| 20260504044518 | 55 | 229 | 9.0 | 14.0 | 0.00 | 0.00 | 0.00 | 75 | 1007.7 |
| 20260504044008 | 54 | 221 | 10.0 | 13.0 | 0.00 | 0.00 | 0.00 | 75 | 1007.8 |
| 20260504043508 | 54 | 210 | 10.0 | 13.0 | 0.00 | 0.00 | 0.00 | 75 | 1007.8 |
| 20260504043021 | 54 | 219 | 9.0 | 12.0 | 0.00 | 0.00 | 0.00 | 75 | 1007.8 |
| 20260504042507 | 54 | 212 | 10.0 | 12.0 | 0.00 | 0.00 | 0.00 | 75 | 1007.8 |
| 20260504042007 | 54 | 225 | 9.0 | 12.0 | 0.00 | 0.00 | 0.00 | 75 | 1007.7 |
| 20260504041523 | 54 | 221 | 10.0 | 12.0 | 0.00 | 0.00 | 0.00 | 75 | 1007.7 |
| 20260504041010 | 54 | 229 | 9.0 | 12.0 | 0.00 | 0.00 | 0.00 | 76 | 1007.7 |
| 20260504040510 | 54 | 224 | 8.0 | 10.0 | 0.00 | 0.00 | 0.00 | 75 | 1007.8 |
| 20260504040028 | 55 | 237 | 7.0 | 10.0 | 0.00 | 0.00 | 0.00 | 74 | 1007.8 |
| 20260504035512 | 55 | 219 | 7.0 | 10.0 | 0.00 | 0.00 | 0.00 | 74 | 1007.9 |
| 20260504035007 | 55 | 236 | 8.0 | 11.0 | 0.00 | 0.00 | 0.00 | 73 | 1008.0 |
| 20260504034529 | 55 | 226 | 8.0 | 11.0 | 0.00 | 0.00 | 0.00 | 73 | 1008.0 |
| 20260504034011 | 55 | 220 | 9.0 | 11.0 | 0.00 | 0.00 | 0.00 | 73 | 1008.1 |
| 20260504033507 | 55 | 219 | 8.0 | 10.0 | 0.00 | 0.00 | 0.00 | 72 | 1008.1 |
| 20260504033017 | 56 | 232 | 6.0 | 10.0 | 0.00 | 0.00 | 0.00 | 71 | 1008.1 |
| 20260504032509 | 57 | 231 | 8.0 | 13.0 | 0.00 | 0.00 | 0.00 | 71 | 1008.2 |
| 20260504032009 | 57 | 224 | 9.0 | 13.0 | 0.00 | 0.00 | 0.00 | 71 | 1008.2 |
| 20260504031524 | 57 | 225 | 8.0 | 11.0 | 0.00 | 0.00 | 0.00 | 70 | 1008.2 |
| 20260504031008 | 57 | 243 | 6.0 | 9.0 | 0.00 | 0.00 | 0.00 | 70 | 1008.1 |
| 20260504030507 | 57 | 244 | 5.0 | 9.0 | 0.00 | 0.00 | 0.00 | 70 | 1008.2 |
| 20260504030023 | 57 | 240 | 6.0 | 8.0 | 0.00 | 0.00 | 0.00 | 69 | 1008.1 |
| 20260504025507 | 57 | 253 | 6.0 | 8.0 | 0.00 | 0.00 | 0.00 | 69 | 1008.2 |
| 20260504025012 | 57 | 256 | 6.0 | 8.0 | 0.00 | 0.00 | 0.00 | 68 | 1008.1 |
| 20260504024528 | 57 | 257 | 6.0 | 8.0 | 0.00 | 0.00 | 0.00 | 69 | 1008.0 |
| 20260504024009 | 57 | 236 | 5.0 | 8.0 | 0.00 | 0.00 | 0.00 | 68 | 1008.0 |
| 20260504023504 | 57 | 249 | 6.0 | 7.0 | 0.00 | 0.00 | 0.00 | 69 | 1008.0 |